Location: Oak Ridge
(36.0100°N, 84.2700°W)
Time: 00:02:02
(UTC-04:00)

Tiangong 2 - Visible Passes

Search period start: 20 June 2018 00:00
Search period end: 30 June 2018 00:00
Orbit: 291 x 297 km, 42.8° (Epoch: 19 June)

Date Brightness Start Highest point End Pass type
(mag) Time Alt. Az. Time Alt. Az. Time Alt. Az.
26 Jun 2.3 04:45:14 22° SE 04:45:14 22° SE 04:47:09 10° E visible
27 Jun 0.8 04:50:24 49° SSE 04:50:34 50° SSE 04:53:03 10° ENE visible
28 Jun 0.6 04:55:26 45° W 04:56:02 68° NNW 04:58:34 10° ENE visible
29 Jun 1.8 05:00:20 22° WNW 05:01:28 35° NNW 05:03:51 10° NE visible
